Wind_Speed
31 33 33 32 33 32 30 30 25 24 25 29 32 33 35 38 40 40 42 43 43 43 41 38 37 37 37 36 36 36 39 40 42 43 45 46 47 49 51 53 55 56 57 59 60 60 62
36 35 36 35 35 33 32 32 30 29 31 32 35 36 39 39 42 43 43 41 38 33 29 28 28 29 29 30 30 29 31 30 33 36 38 43 45 46 48 50 51 55 58 61 63 64 66
36 36 35 34 33 33 32 32 31 32 34 36 36 38 38 40 40 37 32 29 24 24 24 22 23 25 27 25 26 29 30 26 28 29 33 34 38 39 41 41 44 48 53 56 60 62 63
27 32 34 33 34 35 35 34 35 34 35 37 35 34 36 34 27 23 22 21 21 17 17 18 20 21 21 15 28 24 25 28 33 31 28 30 35 34 37 38 41 45 48 53 57 58 59
21 25 28 31 32 32 35 35 35 36 34 34 31 25 17 17 19 15 18 17 19 19 23 26 20 28 25 22 31 32 35 40 43 36 33 34 34 37 43 41 40 44 46 50 55 57 58
18 21 23 25 28 31 32 34 33 30 23 15 11 8 14 14 14 20 21 22 27 29 30 30 36 38 39 42 41 39 41 44 51 52 44 43 43 46 44 45 44 48 51 51 55 57 58
17 23 16 20 21 19 16 12 11 9 8 4 7 10 15 18 17 26 29 28 31 33 36 38 38 43 44 45 45 44 44 48 52 58 52 51 53 55 57 52 51 50 53 55 64 67 60
18 27 18 12 10 7 11 11 11 11 7 8 12 19 25 24 26 28 31 34 36 38 41 43 47 47 50 48 50 46 48 54 61 62 58 53 58 64 62 59 56 57 55 58 63 72 73
20 26 24 20 16 15 9 14 11 12 12 14 19 23 28 28 30 32 35 37 43 43 46 47 50 51 52 46 46 48 52 62 65 63 60 61 64 69 66 62 61 59 62 65 69 72 71
27 27 26 24 28 16 22 23 18 19 24 24 27 29 32 36 39 40 42 43 44 47 48 50 54 55 51 48 51 51 58 65 62 63 64 68 71 71 68 65 67 64 69 70 71 75 74
32 30 28 30 31 22 25 27 30 34 36 37 35 34 34 39 42 45 48 51 50 53 56 56 57 61 61 53 55 63 67 64 65 68 71 73 74 75 68 68 69 68 70 72 75 79 82
33 37 38 37 34 31 29 29 34 38 39 42 44 43 43 47 48 51 54 56 55 57 60 60 61 66 64 63 63 74 69 68 71 73 75 76 75 70 69 71 72 72 73 77 80 84 81
37 38 37 42 43 44 39 38 40 45 45 48 49 49 49 52 55 54 57 56 59 65 64 61 66 66 66 68 72 73 72 73 77 74 71 69 67 72 74 71 72 76 79 83 85 85 83
42 41 42 42 42 44 45 45 48 48 48 48 51 50 52 56 59 57 59 59 64 69 67 69 74 70 71 75 77 78 75 76 84 77 72 69 61 69 71 73 77 80 86 93 96 90 87
41 44 45 43 45 47 53 51 53 53 51 52 54 53 56 63 60 58 60 68 71 69 72 75 77 76 75 80 80 81 81 85 81 82 84 84 72 72 75 77 82 84 89 92 97 96 93
46 50 49 51 53 55 53 52 51 53 56 60 57 57 62 58 61 65 70 76 76 74 75 78 80 81 83 84 84 86 86 85 89 91 93 90 83 76 78 80 84 91 93 95 96 99 92
53 53 58 54 53 50 51 53 52 56 60 60 61 62 62 66 71 73 78 76 79 78 80 87 85 88 84 87 89 87 90 93 96 96 97 95 95 81 83 85 90 95 96 99 101 96 93
57 54 57 58 54 52 54 53 56 59 58 62 65 66 70 75 76 79 78 81 81 83 86 90 94 89 92 93 91 92 97 101 102 97 98 100 100 93 87 90 98 100 100 102 102 90 84
57 57 57 61 61 60 59 53 55 57 63 65 68 72 80 76 77 83 83 82 82 88 93 96 95 96 98 97 99 101 103 105 103 104 104 103 103 103 98 92 93 99 97 95 95 86 73
55 56 57 59 53 55 58 59 64 65 65 68 73 80 80 78 83 84 86 83 91 93 98 98 100 102 100 104 106 109 110 109 107 108 114 113 104 108 97 88 84 82 83 83 82 78 70
61 58 58 58 58 59 59 63 65 69 73 75 78 81 81 85 85 86 85 91 95 98 99 101 102 103 107 109 111 114 113 112 109 113 115 119 109 105 91 86 86 81 74 74 80 74 69
57 57 58 61 61 63 67 69 71 73 73 77 81 82 85 84 85 89 90 95 98 102 104 106 108 112 114 117 121 121 119 119 116 114 113 109 100 96 87 89 88 82 78 73 74 75 70
60 59 62 64 65 70 71 71 72 75 77 82 84 84 85 85 90 91 95 100 104 106 108 112 114 114 118 124 124 125 124 122 119 112 102 99 94 91 82 85 84 83 78 74 73 72 71
65 66 67 71 69 69 71 71 74 78 80 82 84 85 87 93 92 97 102 105 107 111 117 116 118 121 127 127 128 126 124 120 109 103 99 91 90 85 78 77 76 77 76 72 73 68 69
68 71 68 69 70 72 72 73 77 76 81 84 87 90 92 95 100 101 103 106 113 117 116 119 124 126 130 134 128 125 119 107 103 97 95 91 84 80 74 68 68 65 70 68 68 66 66
70 70 70 72 73 74 74 76 77 78 85 86 89 90 95 101 103 103 107 113 116 117 121 125 129 135 137 132 128 119 106 98 94 92 90 86 81 73 68 63 59 56 60 61 61 62 63
75 74 75 73 77 77 82 82 79 86 88 88 91 93 98 102 100 107 113 116 117 122 123 129 134 136 134 131 120 109 103 96 89 85 80 81 77 69 62 59 56 50 52 57 55 52 55
76 73 75 79 85 85 86 84 88 89 91 90 95 99 101 101 109 116 116 117 123 123 128 132 134 132 128 119 109 101 97 92 85 81 74 70 68 66 60 54 51 46 46 52 50 48 48
77 77 81 85 85 85 87 88 90 91 90 94 100 104 101 113 114 118 117 123 124 127 130 134 132 127 117 105 100 97 91 86 79 74 71 64 58 55 52 48 44 44 40 46 47 44 45
Wind_Direction
256 261 265 270 270 277 284 288 285 283 286 289 294 297 301 303 304 306 308 308 306 303 303 300 297 296 300 298 296 292 285 284 282 280 279 277 274 272 270 270 269 269 269 270 271 270 271
260 263 267 269 276 279 281 287 289 289 292 296 297 299 302 302 306 307 307 305 305 307 308 308 308 309 313 314 312 309 306 299 293 289 284 281 279 276 274 272 272 271 270 271 270 269 268
263 264 270 274 278 280 283 286 286 287 291 295 298 299 300 303 305 307 308 308 316 319 318 324 319 323 317 324 333 311 304 298 298 287 283 282 289 289 286 282 278 275 272 271 270 270 269
274 268 269 272 276 280 282 285 287 289 292 294 294 297 301 305 312 315 315 319 325 322 321 316 307 312 303 302 340 347 333 298 297 284 283 286 284 279 277 275 276 275 273 270 271 271 270
280 276 271 273 275 278 280 285 286 287 289 294 298 305 315 317 318 327 317 330 331 336 336 333 322 319 324 315 314 326 329 330 329 311 294 290 300 295 287 291 288 278 278 276 272 274 272
316 293 283 279 278 279 280 282 286 288 290 296 317 306 332 334 324 321 330 334 330 330 327 326 320 320 313 312 309 317 316 320 324 322 312 301 303 304 301 289 287 288 287 285 284 277 274
3 3 310 289 286 285 285 285 293 297 326 299 351 311 322 322 322 339 328 331 334 327 326 326 325 323 315 312 310 301 308 312 318 318 314 310 306 307 304 297 285 281 286 289 289 286 281
347 350 346 331 322 339 329 338 349 344 338 326 299 319 315 326 330 331 330 326 323 320 317 321 325 317 319 311 314 303 301 308 311 311 310 312 306 307 303 295 289 286 283 286 284 284 283
318 331 339 328 316 304 349 354 346 348 329 301 316 320 326 333 329 325 324 321 327 320 320 319 322 318 316 308 308 308 305 305 307 310 310 307 305 307 301 293 287 287 285 282 281 281 284
306 316 328 321 316 310 304 320 323 327 319 320 326 320 321 323 320 322 318 320 322 325 318 313 314 318 317 310 309 307 304 309 309 311 310 304 303 304 300 291 288 286 283 282 283 284 284
303 300 314 312 308 284 291 300 310 314 315 314 316 314 317 320 318 318 315 319 317 318 320 314 313 314 313 315 311 310 311 311 309 307 304 302 301 300 294 290 289 286 287 289 290 290 287
293 295 301 303 304 296 281 288 300 305 308 311 309 312 314 313 317 318 318 316 314 312 314 314 308 310 311 315 312 314 313 310 311 307 302 299 299 297 293 292 289 289 290 289 288 289 290
281 283 292 292 293 294 292 288 297 297 301 305 307 306 303 308 312 314 314 314 311 310 312 310 313 315 315 314 313 314 312 307 308 308 301 301 299 295 295 292 291 291 293 293 289 289 293
283 278 286 283 285 290 290 291 293 297 299 302 302 301 303 302 306 311 313 310 309 307 314 317 320 316 314 313 313 314 311 311 310 307 308 302 299 298 296 296 294 292 293 295 293 293 293
280 280 280 277 282 284 286 287 290 289 297 298 302 303 302 301 305 310 306 311 314 313 314 317 315 318 312 312 314 314 309 312 312 312 311 311 310 304 300 296 294 292 292 293 293 293 294
272 279 278 278 276 280 285 287 290 291 293 295 299 301 299 300 301 304 307 311 317 314 315 314 315 314 311 314 314 310 312 316 316 313 311 308 307 305 299 296 295 293 293 292 292 292 293
274 281 281 277 279 278 283 288 289 291 294 293 295 295 296 299 303 307 310 313 317 314 312 315 313 314 313 313 313 312 315 316 314 311 309 307 306 306 301 297 296 295 295 294 293 294 293
272 276 279 277 282 282 285 289 291 289 292 296 292 296 301 303 305 310 312 311 313 313 312 314 313 315 314 314 314 315 314 313 313 311 307 305 305 306 304 300 297 295 294 292 291 291 290
271 275 274 276 279 280 288 289 289 288 292 294 296 300 304 304 306 311 310 309 309 314 315 315 315 315 316 315 314 315 313 313 312 310 306 306 306 305 302 298 295 292 292 291 290 288 288
274 276 277 279 286 288 289 288 290 292 292 294 299 302 304 305 309 309 308 308 312 314 315 316 316 316 315 313 314 314 314 313 312 310 308 306 306 302 300 300 294 290 288 285 282 282 282
272 272 275 281 284 286 287 288 290 294 298 297 300 304 303 306 310 307 307 312 314 313 316 316 315 314 313 315 314 314 313 313 311 309 307 306 306 301 303 299 291 289 285 281 280 279 277
273 274 278 283 284 287 288 290 291 297 299 303 303 304 307 306 307 308 309 313 314 315 315 315 313 314 315 314 313 314 313 312 311 309 306 303 301 299 298 291 289 289 284 279 275 274 273
278 278 278 279 283 287 289 292 294 297 301 301 304 306 306 305 305 309 309 312 315 314 314 314 314 314 313 314 314 313 313 312 310 308 304 301 299 295 294 287 286 284 280 277 272 269 269
272 273 276 280 286 288 292 294 298 299 299 300 303 304 306 306 308 310 310 313 314 314 313 314 313 313 313 313 313 313 313 311 309 306 304 300 296 293 290 286 284 281 280 275 271 266 263
271 276 276 284 288 293 294 296 297 297 297 302 304 305 305 307 309 309 312 312 313 312 312 313 312 313 312 312 312 312 312 310 308 305 303 301 299 296 294 290 285 281 277 272 267 263 258
272 272 280 286 291 290 294 296 295 296 298 301 304 304 306 307 310 310 311 312 312 312 312 312 312 312 312 313 313 314 312 310 308 306 304 302 301 299 297 294 288 281 275 271 264 259 255
272 275 284 285 286 289 293 294 292 297 299 301 302 304 306 309 308 309 310 311 310 311 311 311 312 312 313 314 315 314 312 311 309 307 305 305 304 302 298 294 288 282 274 269 265 260 254
272 275 278 283 287 290 290 291 293 296 299 301 304 305 308 307 309 309 310 309 310 311 311 311 311 312 313 314 312 313 312 312 312 308 307 304 302 300 298 293 287 281 271 267 263 256 250
273 276 280 283 286 287 288 290 295 298 302 305 306 308 306 310 309 310 309 311 311 311 310 310 311 313 314 312 313 313 313 313 311 309 307 305 301 296 293 290 285 279 269 263 261 254 246
Height
10735 10735 10735 10736 10736 10737 10737 10737 10736 10734 10733 10732 10730 10727 10725 10723 10720 10717 10713 10709 10706 10702 10699 10695 10693 10691 10688 10686 10685 10682 10679 10678 10676 10674 10672 10670 10668 10667 10666 10666 10665 10663 10661 10661 10660 10659 10659
10728 10729 10730 10731 10732 10733 10732 10731 10730 10729 10728 10726 10724 10721 10719 10715 10712 10709 10705 10702 10698 10695 10692 10689 10686 10685 10682 10680 10677 10675 10672 10671 10668 10665 10663 10660 10658 10656 10654 10654 10652 10650 10649 10646 10646 10644 10643
10724 10725 10725 10726 10727 10727 10727 10725 10724 10723 10721 10719 10717 10715 10712 10708 10705 10702 10699 10696 10693 10690 10688 10685 10683 10681 10679 10678 10675 10670 10667 10664 10661 10658 10655 10653 10650 10647 10644 10643 10639 10637 10635 10633 10630 10629 10629
10719 10720 10721 10721 10721 10722 10721 10719 10718 10716 10715 10713 10711 10708 10706 10703 10700 10698 10696 10694 10691 10688 10685 10684 10682 10679 10676 10673 10670 10667 10665 10661 10657 10652 10648 10644 10640 10638 10636 10634 10630 10626 10624 10619 10615 10614 10614
10715 10715 10716 10716 10715 10715 10715 10713 10712 10711 10709 10707 10705 10703 10701 10700 10697 10696 10695 10693 10690 10687 10684 10682 10680 10677 10674 10669 10666 10661 10657 10653 10649 10645 10640 10635 10631 10627 10624 10623 10619 10614 10612 10607 10602 10598 10600
10712 10712 10712 10711 10711 10710 10709 10707 10706 10704 10703 10702 10700 10700 10699 10698 10696 10694 10692 10689 10687 10683 10680 10676 10673 10670 10665 10661 10658 10653 10649 10644 10640 10636 10631 10626 10620 10614 10612 10608 10606 10601 10597 10593 10587 10583 10585
10712 10710 10708 10707 10706 10705 10703 10702 10701 10700 10699 10699 10699 10699 10697 10696 10693 10691 10688 10684 10681 10677 10674 10670 10667 10662 10656 10652 10648 10644 10639 10635 10630 10626 10621 10614 10607 10603 10597 10592 10589 10584 10581 10578 10569 10564 10569
10711 10710 10708 10707 10705 10704 10702 10700 10699 10698 10697 10697 10697 10695 10693 10691 10689 10686 10683 10679 10675 10672 10666 10663 10659 10654 10648 10640 10635 10631 10627 10622 10618 10613 10608 10601 10594 10588 10582 10575 10569 10565 10563 10558 10557 10548 10547
10709 10707 10707 10705 10703 10701 10699 10698 10697 10697 10696 10696 10694 10691 10688 10685 10683 10680 10676 10672 10668 10663 10658 10652 10646 10642 10637 10631 10626 10621 10616 10610 10604 10597 10591 10584 10578 10572 10566 10557 10551 10549 10542 10538 10536 10529 10528
10705 10704 10702 10702 10700 10698 10697 10695 10695 10694 10693 10691 10688 10685 10681 10678 10676 10672 10668 10664 10659 10654 10649 10643 10637 10632 10627 10621 10615 10610 10603 10596 10589 10583 10577 10570 10561 10557 10550 10539 10532 10533 10519 10516 10512 10507 10509
10703 10700 10699 10697 10695 10694 10692 10690 10689 10687 10686 10684 10681 10678 10675 10671 10667 10663 10659 10653 10648 10643 10638 10632 10625 10619 10613 10608 10601 10596 10587 10578 10571 10568 10562 10553 10547 10540 10531 10520 10512 10509 10502 10495 10489 10483 10480
10697 10696 10694 10692 10691 10688 10685 10683 10681 10679 10677 10675 10673 10668 10664 10661 10658 10654 10648 10643 10637 10632 10627 10620 10613 10607 10600 10593 10585 10578 10568 10560 10555 10550 10543 10537 10528 10520 10513 10503 10492 10485 10479 10472 10467 10460 10460
10688 10688 10687 10685 10683 10682 10680 10677 10674 10671 10669 10665 10662 10659 10656 10652 10647 10643 10638 10632 10627 10620 10614 10607 10599 10592 10584 10576 10569 10561 10553 10542 10534 10531 10526 10519 10510 10500 10491 10482 10472 10461 10453 10444 10440 10438 10438
10681 10680 10679 10678 10675 10673 10671 10669 10666 10663 10659 10656 10652 10649 10646 10641 10638 10632 10627 10622 10616 10608 10599 10591 10583 10575 10568 10558 10551 10543 10535 10526 10513 10502 10502 10498 10503 10483 10472 10461 10450 10443 10431 10418 10402 10409 10412
10670 10670 10669 10668 10666 10664 10661 10658 10655 10653 10650 10646 10642 10638 10635 10630 10625 10620 10615 10608 10600 10591 10582 10574 10566 10561 10551 10542 10532 10523 10514 10507 10492 10481 10471 10464 10475 10463 10450 10439 10429 10423 10413 10399 10383 10380 10376
10658 10659 10658 10657 10654 10653 10650 10647 10645 10641 10638 10634 10630 10627 10622 10617 10612 10607 10600 10592 10582 10574 10566 10559 10550 10542 10534 10524 10512 10500 10492 10482 10465 10455 10444 10435 10436 10445 10430 10418 10407 10391 10387 10375 10365 10352 10352
10646 10645 10646 10645 10644 10642 10639 10636 10633 10629 10625 10622 10617 10612 10608 10603 10597 10591 10583 10574 10566 10555 10549 10542 10531 10522 10511 10502 10492 10478 10463 10454 10445 10427 10412 10403 10397 10422 10406 10395 10382 10367 10359 10344 10332 10332 10322
10635 10634 10634 10635 10632 10629 10627 10624 10621 10617 10613 10609 10604 10599 10595 10589 10582 10576 10566 10558 10550 10540 10529 10520 10510 10498 10488 10477 10465 10453 10441 10426 10417 10406 10390 10374 10365 10368 10375 10372 10349 10337 10330 10316 10302 10308 10303
10621 10621 10622 10622 10620 10618 10615 10612 10608 10605 10602 10597 10591 10585 10579 10573 10566 10558 10550 10540 10530 10521 10508 10496 10485 10475 10462 10450 10437 10432 10417 10405 10388 10373 10356 10353 10340 10331 10332 10337 10326 10305 10297 10287 10277 10274 10282
10608 10608 10609 10609 10608 10606 10603 10599 10594 10590 10586 10582 10577 10571 10563 10557 10549 10540 10530 10521 10510 10501 10489 10473 10462 10449 10438 10427 10414 10404 10391 10377 10362 10342 10320 10308 10319 10295 10290 10293 10282 10278 10271 10262 10253 10249 10255
10597 10597 10598 10597 10595 10594 10591 10586 10582 10578 10572 10566 10561 10554 10547 10540 10531 10520 10510 10501 10488 10476 10465 10451 10440 10426 10415 10402 10390 10375 10361 10347 10335 10317 10297 10273 10273 10256 10260 10253 10238 10239 10244 10239 10226 10229 10229
10585 10586 10585 10584 10584 10581 10576 10572 10569 10565 10558 10551 10543 10538 10531 10521 10512 10502 10491 10482 10469 10453 10439 10426 10412 10397 10382 10371 10357 10344 10331 10311 10306 10292 10271 10253 10241 10230 10235 10216 10206 10208 10211 10212 10207 10203 10204
10572 10572 10573 10572 10571 10568 10563 10558 10554 10548 10542 10534 10526 10520 10512 10505 10493 10483 10472 10459 10448 10432 10417 10403 10390 10376 10359 10343 10328 10310 10294 10285 10267 10250 10240 10223 10213 10203 10207 10187 10183 10178 10179 10180 10178 10180 10181
10559 10560 10559 10558 10557 10554 10550 10544 10538 10531 10525 10518 10511 10502 10493 10483 10472 10461 10450 10436 10421 10407 10389 10374 10361 10347 10330 10317 10303 10282 10269 10250 10235 10214 10199 10193 10181 10176 10173 10164 10157 10149 10146 10149 10147 10155 10158
10546 10547 10545 10544 10543 10540 10536 10530 10521 10513 10507 10500 10492 10484 10473 10463 10452 10441 10427 10413 10398 10381 10365 10352 10334 10321 10302 10287 10274 10261 10239 10219 10201 10185 10168 10157 10149 10141 10137 10134 10127 10126 10116 10117 10119 10126 10131
10532 10531 10531 10530 10529 10525 10520 10513 10506 10498 10491 10483 10475 10465 10454 10442 10432 10418 10406 10392 10373 10355 10341 10321 10305 10287 10270 10254 10238 10218 10205 10196 10180 10161 10139 10126 10117 10113 10108 10104 10101 10099 10093 10090 10094 10099 10106
10519 10519 10519 10517 10513 10509 10505 10497 10491 10483 10474 10465 10458 10448 10437 10424 10412 10400 10388 10370 10353 10335 10314 10296 10276 10257 10238 10220 10203 10190 10172 10162 10150 10134 10121 10099 10087 10086 10084 10081 10077 10076 10073 10067 10072 10082 10086
10508 10507 10506 10503 10498 10493 10488 10482 10475 10466 10457 10447 10439 10427 10416 10405 10394 10380 10365 10347 10330 10310 10291 10269 10253 10235 10216 10197 10178 10163 10148 10132 10121 10104 10097 10086 10075 10064 10061 10060 10057 10055 10054 10049 10053 10060 10067
10495 10494 10492 10488 10483 10477 10471 10464 10456 10447 10438 10428 10417 10407 10394 10385 10370 10357 10339 10321 10302 10282 10264 10243 10226 10208 10192 10174 10157 10139 10123 10107 10097 10084 10072 10067 10060 10052 10046 10041 10039 10033 10036 10033 10035 10042 10048